Regional Weather Roundup
Issued by NWS

Home | Current Version | Previous Version | Text Only | Print | Product List | Glossary On
Versions: 1 2 3 4 5 6 7 8 9 10 11 12 13 14 15 16 17 18 19 20 21 22 23 24 25 26 27 28 29 30 31 32 33 34 35 36 37 38 39 40 41 42 43 44 45 46 47 48 49 50
000
ASUS42 KFFC 281210
RWRGA
WEATHER ROUNDUP FOR GEORGIA
NATIONAL WEATHER SERVICE PEACHTREE CITY GA
700 AM EST TUE FEB 28 2017

NOTE: "FAIR" INDICATES FEW OR NO CLOUDS BELOW 12,000 FEET WITH NO
SIGNIFICANT WEATHER AND/OR OBSTRUCTIONS TO VISIBILITY.

* = USE WITH CAUTION. THE STATIONS MARKED WITH AN ASTERISK MAY NOT
REPORT WEATHER SUCH AS PRECIPITATION, FOG, OR THUNDER AND ARE NOT
QUALITY CONTROLLED BY NWS.

THE REMARK "TC" DENOTES TEMPERATURE READING IN DEGREES CELSIUS.

GAZ001>058-281300-
NORTH GEORGIA

CITY           SKY/WX    TMP DP  RH WIND       PRES   REMARKS
ATLANTA        PTCLDY    50  46  86 E3        30.28S
6HR MIN TEMP:  50; 6HR MAX TEMP:  53;

ATHENS         PTCLDY    46  40  79 CALM      30.29S
6HR MIN TEMP:  46; 6HR MAX TEMP:  52;

CHAMBLEE       MOCLDY    50  39  66 CALM      30.28S
6HR MIN TEMP:  50; 6HR MAX TEMP:  53;

PEACHTREE CITY FOG       51  51 100 CALM      30.29R VSB 1/2
6HR MIN TEMP:  46; 6HR MAX TEMP:  51;

ROME           CLOUDY    51  48  89 S3        30.26F
6HR MIN TEMP:  47; 6HR MAX TEMP:  52;

WEST ATLANTA   PTCLDY    49  45  86 CALM      30.28R
6HR MIN TEMP:  49; 6HR MAX TEMP:  53;

GAINESVILLE    CLOUDY    52  39  61 E5        30.30S
6HR MIN TEMP:  49; 6HR MAX TEMP:  53;

CARTERSVILLE   MOCLDY    48  46  93 CALM      30.28S
6HR MIN TEMP:  47; 6HR MAX TEMP:  53;



CITY           SKY/WX    TMP DP  RH WIND       PRES   REMARKS
DALTON*        CLOUDY    52  50  93 S5        30.25F
LAWRENCEVILLE* CLOUDY    48  39  71 CALM      30.29
MARIETTA       PTCLDY    51  42  71 E3        30.27S
KENNESAW*      CLEAR     52  43  71 E3        30.30
CANTON*        CLOUDY    52  41  66 CALM      30.30S
$$

GAZ059>098-102>109-281300-
CENTRAL GEORGIA

CITY           SKY/WX    TMP DP  RH WIND       PRES   REMARKS
AUGUSTA-BUSH   PTCLDY    52  51  97 CALM      30.28S FOG
6HR MIN TEMP:  51; 6HR MAX TEMP:  62;

AUGUSTA-DANIEL CLEAR     57  51  80 CALM      30.29S
6HR MIN TEMP:  56; 6HR MAX TEMP:  62;

COLUMBUS       CLOUDY    55  55 100 E7        30.26S FOG
6HR MIN TEMP:  55; 6HR MAX TEMP:  57;

MACON          FOG       49  49 100 CALM      30.30R VSB 3/4
6HR MIN TEMP:  49; 6HR MAX TEMP:  55;

ROBINS AFB     FOG       51  50  99 CALM      30.29S VSB 1/4


CITY           SKY/WX    TMP DP  RH WIND       PRES   REMARKS
LAGRANGE*      FOG       55  55 100 CALM      30.27R VSB 1/2
SYLVANIA*      MOCLDY   N/A N/A N/A CALM      30.30R
MILLEDGEVILLE* CLEAR     48  48 100 CALM      30.30R FOG
$$

GAZ099>101-110>166-281300-
SOUTH GEORGIA

CITY           SKY/WX    TMP DP  RH WIND       PRES   REMARKS
SAVANNAH       CLOUDY    63  61  93 N5        30.28R
6HR MIN TEMP:  62; 6HR MAX TEMP:  64; 6HR PCP: TRACE;

VALDOSTA       MOCLDY    51  51 100 CALM      30.27R
6HR MIN TEMP:  51; 6HR MAX TEMP:  59;

ALMA           CLOUDY    60  60 100 CALM      30.28R FOG
6HR MIN TEMP:  58; 6HR MAX TEMP:  63;

ST SIMONS      CLEAR     59  58  96 CALM      30.26R
6HR MIN TEMP:  59; 6HR MAX TEMP:  66;

FT STEWART     CLOUDY    64  61  90 CALM      30.26R
ALBANY         FOG       54  54 100 NE6       30.29S VSB 3/4
HUNTER AFB     PTCLDY    61  61 100 CALM      30.26R FOG
MOODY AFB      FOG       59  58  98 CALM      30.26R VSB<1/4
BRUNSWICK      FOG       61  61 100 CALM      30.27R VSB 1/4


CITY           SKY/WX    TMP DP  RH WIND       PRES   REMARKS
BAINBRIDGE*    CLEAR     54  52  94 CALM      30.25F
MOULTRIE*      MOCLDY    57  55  94 CALM      30.28R
VIDALIA*       CLOUDY    63  63 100 CALM      30.29R
WAYCROSS*      FOG       64  64 100 CALM      30.27R VSB 1/4
DOUGLAS*       CLOUDY    61  59  94 CALM      30.30R FOG
$$



USA.gov is the U.S. government's official web portal to all federal, state and local government web resources and services.